Search your local weather  

 
Advertise Here

Hazardous Weather Conditions

No active alerts for DENVER, COLORADO

Current Conditions: DENVER, COLORADO

Partly Cloudy


50.0 F

Last Updated on Mar 6 2021, 9:47 pm MST
Humidity: 24%
Wind Speed: SW 8.1 G 17.3 mph
Barometer 29.92 in
Dewpoint: 14.0 F
Visibility: 10.00 mi
Precip: --
Heat Index: NA
Wind Chill: 47 F
Current conditions at:

Broomfield / Jeffco, CO (KBJC)

Lat: 39.90085 Lon: -105.10417

Local Radar Image active severe weather and emergency alerts image image weather storm and storm spotter reports image weather observation monitoring service image
Local
Radar
Active
Alerts
Storm Reports Weather
Monitoring

5 Day Forecast for DENVER, COLORADO (80202)

Saturday

Mostly Cloudy

High 66 °F
Saturday
Night
Mostly Cloudy

Low 34 °F
Sunday

Mostly Cloudy

High 66 °F
Sunday
Night
Mostly Cloudy

Low 37 °F
Monday

Mostly Cloudy

High 68 °F
Monday
Night
Partly Cloudy

Low 39 °F
Tuesday

Partly Sunny

High 67 °F
Tuesday
Night
Slight Chance of Snow
Low 35 °F
Wednesday

Slight Chance of Rain Showers
High 54 °F

Sign-up For Email & Text Message Weather Alert Notification Services


Advertise Here

Observation History for DENVER, COLORADO


Time Wind
(mph)
Vis
(mi)
Weather Precip (in) Temperature (F) Relative
Humidity
Wind
Chill
(F)
Heat
Index
(F)
Pressure
Air Dwpt altimeter
(in)
sea level
(mb)
9:47 pm MST SW 8.1 G 17.3 10.00 Partly Cloudy -- 50.0 14.0 24% 47 NA 29.92 M
8:47 pm MST W 6.9 10.00 Partly Cloudy -- 50.0 14.0 24% 47 NA 29.91 M
7:52 pm MST W 13.8 10.00 Partly Cloudy -- 52.0 14.0 22% 47 NA 29.90 M
6:47 pm MST N 6.9 10.00 Partly Cloudy -- 55.0 10.4 16% 53 NA 29.90 M
5:47 pm MST N 5.8 10.00 Partly Cloudy -- 61.0 10.4 13% 61 NA 29.92 M
4:47 pm MST NE 8.1 10.00 Partly Cloudy -- 64.0 10.4 12% NA NA 29.91 M
3:55 pm MST NE 3.5 10.00 Partly Cloudy -- 64.0 8.6 11% NA NA 29.92 M
2:45 pm MST N 0.0 10.00 Partly Cloudy -- 66.0 6.8 9% NA NA 29.93 M
12:45 pm MST E 6.9 75.00 A Few Clouds -- 63.0 6.8 11% 63 NA 29.99 M
11:55 am MST E 3.5 75.00 A Few Clouds -- 61.0 10.4 13% NA NA 30.03 M
10:55 am MST N 0.0 10.00 A Few Clouds -- 57.0 12.2 17% NA NA 30.05 M
8:46 am MST N 0.0 50.00 A Few Clouds -- 46.0 17.6 32% NA NA 30.10 M
7:45 am MST N 0.0 10.00 A Few Clouds -- 39.0 23.0 52% NA NA 30.10 M
6:45 am MST N 0.0 10.00 A Few Clouds -- 39.0 12.2 33% NA NA 30.12 M
5:45 am MST 3.5 10.00 A Few Clouds -- 36.0 10.4 35% NA NA 30.14 M
4:55 am MST W 3.5 10.00 Fair -- 36.0 12.2 38% NA NA 30.15 M
3:55 am MST W 3.5 10.00 Fair -- 37.0 15.8 41% NA NA 30.16 M
2:55 am MST N 0.0 10.00 Fair -- 37.0 15.8 41% NA NA 30.16 M
1:55 am MST N 0.0 10.00 Fair -- 39.0 17.6 42% NA NA 30.18 M
12:55 am MST SW 4.6 10.00 Fair -- 39.0 17.6 42% 36 NA 30.19 M
11:55 pm MST SW 4.6 10.00 Fair -- 39.0 19.4 45% 36 NA 30.21 M
10:55 pm MST S 5.8 10.00 Fair -- 36.0 21.2 56% 31 NA 30.23 M

Regional Weather Observation

Erie Municipal Airport, CO (KEIK)

Fair
40.0 F

Boulder Municipal Airport, CO (KBDU)

Fair
52.0 F

Unknown Station (KC99)

Fair
28.0 F

Vance Brand Airport, CO (KLMO)

Fair
43.0 F

Berthoud Pass, CO (K0CO)

Fair and Windy
23.0 F

Fort Collins/Loveland - Northern Colorado Regional Airport, CO (KFNL)

Fair
51.0 F
Advertise Here

Advertise Here